sat.trackr.live / text

‹ back to catalog

STARLINK-35765

NORAD 67041 · 2025-294M

PAYLOAD ACTIVE UNKNOWN

§ Identity

Operator
Country
US
Launch date
2025-12-11
Launch site
AFETR
Launch vehicle
Mass (kg)
RCS (m²)

Purposes: comms

External: N2YO · Heavens-Above · Gunter

§ Orbital elements

Epoch: 2026-09-20T18:29:40.073280Z

Period
94.27 min
Inclination
43.0027°
Eccentricity
0.0001590
Mean motion
15.27557989 rev/d
Perigee alt
482.0 km
Apogee alt
484.2 km
Semi-major
6,861.3 km
B*
4.5699e-4
RAAN
16.4195°
Arg perigee
283.6611°
Mean anomaly
76.4064°
Rev number
4,463

§ Raw data

STARLINK-357651 67041U 25294M   26263.77060270  .00012326  00000+0  45699-3 0  99972 67041  43.0027  16.4195 0001590 283.6611  76.4064 15.27557989 44636

JSON: /api/v1/satellites/67041 · /tle

For live sub-satellite position, see the globe view (requires WebGL).

§ Visibility from observer

Set your observer location to see the next 7 days of passes ≥ 10°. The values pass through the URL so the page stays shareable.

No JS? Fill the form by hand. The geolocation button needs JavaScript.